[[{"header":{"parameterUnit":"m.s-1","parameterCategory":1,"la1":30.2991,"la2":30.254,"lo1":-89.0895,"lo2":-89.0444,"dy":0.0017,"dx":0.0017,"nx":28,"ny":28,"refTime":"2025-11-04T09:00:00:Z","depth":0,"parameterNumber":2,"parameterNumberName":"U-component_of_WINDS"},"data":[0,0,0,0,0,0,0,0,0,0,0,0,0,0,0,0,0,0,0,0,0,0,0,0,0,0,0,0,0,0,0,0,0,0,0,0,0,0,0,0,0,0,0,0,0,0,0,0,0,0,0,0,0,0,0,0,0,0,-2.1301,-2.1302,0,-2.1405,-2.1406,-2.1407,-2.1407,-2.1406,-2.1404,-2.1403,-2.1511,-2.1515,-2.1519,0,0,0,0,0,0,0,0,0,0,0,0,0,-2.1104,-2.1107,-2.1301,-2.1302,-2.1303,-2.1404,-2.1406,-2.1407,-2.1407,-2.1406,-2.1404,-2.1402,-2.1509,-2.1514,-2.1519,0,0,0,0,0,0,0,0,0,0,0,0,0,-2.1196,-2.1108,-2.1301,-2.1315,-2.1318,-2.1404,-2.1406,-2.1408,-2.1408,-2.1405,-2.1403,-2.1402,-2.1508,-2.1514,-2.152,-2.1598,0,0,-2.1539,-2.1541,0,0,0,0,0,0,0,0,-2.1191,-2.1204,-2.1312,-2.1315,-2.1317,-2.1391,-2.1376,-2.1472,-2.1408,-2.1374,-2.1403,-2.1401,-2.1472,-2.1481,-2.1505,-2.1603,-2.1608,-2.1539,-2.1543,-2.1546,-2.1547,0,0,0,0,0,0,0,-2.1185,-2.1199,-2.1342,-2.1314,-2.1317,-2.1317,-2.1328,-2.1394,-2.1433,-2.1376,-2.1377,-2.1389,-2.1474,-2.1499,-2.1508,-2.161,-2.1539,-2.1544,-2.1548,-2.1551,-2.1777,-2.1779,0,0,0,0,0,0,-2.1175,-2.1194,-2.1339,-2.1345,-2.1248,-2.1322,-2.1335,-2.1369,-2.1432,-2.144,-2.139,-2.1388,-2.149,-2.1501,-2.1512,-2.1607,-2.1546,-2.1551,-2.1555,-2.1774,-2.1777,-2.178,0,0,0,0,0,0,-2.1171,-2.1188,-2.1334,-2.127,-2.1288,-2.1328,-2.1367,-2.1372,-2.1398,-2.1443,-2.145,-2.141,-2.1489,-2.1503,-2.1577,-2.1611,-2.1554,-2.156,-2.1772,-2.1775,-2.1778,-2.1799,0,0,0,0,0,0,-2.1165,-2.1186,-2.1217,-2.127,-2.1292,-2.1397,-2.1369,-2.1376,-2.1409,-2.1407,-2.1463,-2.147,-2.1488,-2.1567,-2.1583,-2.1618,-2.1565,-2.1769,-2.1773,-2.1777,-2.1795,-2.1802,-2.1808,0,0,0,0,0,-2.1158,-2.1219,-2.1218,-2.1236,-2.133,-2.1399,-2.1412,-2.1431,-2.1411,-2.1442,-2.1471,-2.1468,-2.1605,-2.1575,-2.1592,-2.163,-2.1767,-2.1772,-2.1777,-2.1792,-2.1801,-2.1808,0,0,0,0,0,0,-2.1169,-2.1226,-2.1226,-2.1306,-2.1347,-2.1399,-2.1438,-2.144,-2.1488,-2.1485,-2.1507,-2.1519,-2.1592,-2.1619,-2.1585,-2.1709,-2.1683,-2.1692,-2.1689,-2.1698,-2.1704,-2.1696,-2.157,0,0,0,0,0,-2.118,-2.1231,-2.1279,-2.1345,-2.1365,-2.1398,-2.1429,-2.144,-2.1485,-2.1502,-2.1537,-2.158,-2.1633,-2.1667,-2.1718,-2.1799,-2.1811,-2.1834,-2.1841,-2.1846,-2.1853,-2.1897,-2.1907,-2.1796,-2.1796,-2.1796,0,0,-2.1205,-2.1242,-2.1273,-2.1348,-2.1381,-2.1434,-2.1413,-2.147,-2.1509,-2.1511,-2.1582,-2.1609,-2.1659,-2.1736,-2.1772,-2.1761,-2.1886,-2.1852,-2.1856,-2.1861,-2.1903,-2.1914,-2.1923,-2.18,-2.1799,-2.1799,0,0,-2.1276,-2.131,-2.1368,-2.1402,-2.1453,-2.1474,-2.1488,-2.1539,-2.1557,-2.1628,-2.1631,-2.1678,-2.1768,-2.1804,-2.1833,-2.1917,-2.1916,-2.1933,-2.1968,-2.2011,-2.2019,-2.2027,-2.2056,-2.2066,-2.194,-2.1941,-2.1941,0,-2.13,-2.1379,-2.1398,-2.1454,-2.1486,-2.149,-2.1549,-2.1581,-2.1646,-2.1669,-2.1655,-2.1767,-2.1802,-2.1887,-2.1907,-2.1931,-2.1948,-2.1926,-2.2017,-2.2025,-2.2032,-2.206,-2.2071,-2.1942,-2.1942,-2.1942,-2.1942,0,-2.1405,-2.146,-2.15,-2.1562,-2.1599,-2.1656,-2.1684,-2.1719,-2.1727,-2.175,-2.1822,-2.1864,-2.1922,-2.1944,-2.1952,-2.203,-2.2021,-2.2012,-2.1986,-2.2044,-2.207,-2.2081,-2.1944,-2.1944,-2.1943,-2.1943,0,0,-2.1486,-2.1557,-2.1571,-2.1599,-2.1655,-2.1697,-2.1755,-2.1812,-2.1841,-2.1886,-2.1934,-2.201,-2.2002,-2.2036,-2.2048,-2.2086,-2.2148,-2.2072,-2.2073,-2.2084,-2.2235,-2.2241,-2.2253,-2.2149,-2.2151,-2.2152,-2.2231,0,-2.1562,-2.1663,-2.1681,-2.1769,-2.1819,-2.1824,-2.1874,-2.1914,-2.1936,-2.1983,-2.2008,-2.2061,-2.2046,-2.2067,-2.2104,-2.2133,-2.2179,-2.2127,-2.2193,-2.2195,-2.2179,-2.2267,-2.2273,-2.2345,-2.2241,-2.2243,-2.2244,0,-2.1664,-2.171,-2.1803,-2.1851,-2.1873,-2.1918,-2.1971,-2.2015,-2.206,-2.2074,-2.2111,-2.212,-2.2179,-2.2152,-2.2234,-2.2199,-2.2227,-2.2245,-2.2248,-2.2254,-2.2222,-2.2274,-2.2369,-2.2379,-2.2261,-2.226,-2.2258,0,-2.1712,-2.1798,-2.1864,-2.1888,-2.1946,-2.1977,-2.2003,-2.2046,-2.2079,-2.2126,-2.2147,-2.22,-2.2229,-2.2271,-2.2293,-2.2271,-2.2374,-2.2348,-2.2386,-2.2386,-2.2407,-2.2405,-2.2506,-2.2427,-2.2427,-2.2427,-2.2427,0,-2.1795,-2.1851,-2.1886,-2.1927,-2.199,-2.201,-2.2072,-2.2098,-2.2136,-2.2182,-2.219,-2.2233,-2.226,-2.2307,-2.2326,-2.239,-2.2404,-2.2417,-2.2421,-2.2415,-2.2414,-2.2433,-2.2428,-2.243,-2.2429,-2.2428,-2.2428,0,-2.1859,-2.1884,-2.1957,-2.2006,-2.2019,-2.2063,-2.2106,-2.2145,-2.2168,-2.2226,-2.2241,-2.2276,-2.2332,-2.2358,-2.2428,-2.244,-2.2513,-2.2515,-2.2497,-2.2499,-2.2535,-2.2531,-2.2651,-2.2668,-2.2579,-2.258,-2.258,0,-2.1909,-2.1952,-2.2005,-2.2036,-2.2062,-2.2112,-2.2145,-2.2167,-2.2201,-2.2256,-2.2289,-2.2344,-2.239,-2.2478,-2.2511,-2.2564,-2.2566,-2.2604,-2.2574,-2.2567,-2.2565,-2.2561,-2.2566,-2.2609,-2.261,-2.2611,-2.2612,0,-2.1995,-2.2006,-2.2052,-2.2103,-2.2142,-2.2184,-2.2225,-2.225,-2.2278,-2.2316,-2.2372,-2.2408,-2.2478,-2.2533,-2.2588,-2.2615,-2.2618,-2.2621,-2.2632,-2.2627,-2.2615,-2.2621,-2.2511,-2.2618,-2.2617,-2.2617,-2.2617,-2.2616,-2.2054,-2.2092,-2.2134,-2.2186,-2.2219,-2.2256,-2.2296,-2.2323,-2.237,-2.2428,-2.2438,-2.2498,-2.2542,-2.2616,-2.2645,-2.2692,-2.2683,-2.27,-2.2704,-2.2708,-2.2709,-2.2608,-2.2702,-2.2702,-2.2702,-2.2702,-2.2702,0,-2.2139,-2.2167,-2.2214,-2.227,-2.231,-2.2309,-2.2354,-2.2388,-2.244,-2.248,-2.2525,-2.2589,-2.2642,-2.2679,-2.2733,-2.2763,-2.2766,-2.2777,-2.2774,-2.278,-2.2714,-2.2698,-2.2773,-2.2773,-2.2773,-2.2773,-2.2773,-2.2773,-2.2189,-2.2252,-2.2268,-2.2347,-2.2375,-2.2432,-2.2458,-2.2493,-2.2525,-2.2596,-2.264,-2.2663,-2.2701,-2.2758,-2.2807,-2.2816,-2.2835,-2.2846,-2.2855,-2.2792,-2.2785,-2.2778,-2.2763,-2.285,-2.285,-2.2917,-2.2917,-2.2918]},{"header":{"parameterUnit":"m.s-1","parameterCategory":1,"la1":30.2991,"la2":30.254,"lo1":-89.0895,"lo2":-89.0444,"dy":0.0017,"dx":0.0017,"nx":28,"ny":28,"refTime":"2025-11-04T09:00:00:Z","depth":0,"parameterNumber":3,"parameterNumberName":"V-component_of_WINDS"},"data":[0,0,0,0,0,0,0,0,0,0,0,0,0,0,0,0,0,0,0,0,0,0,0,0,0,0,0,0,0,0,0,0,0,0,0,0,0,0,0,0,0,0,0,0,0,0,0,0,0,0,0,0,0,0,0,0,0,0,2.6582,2.6581,0,2.6526,2.6525,2.6525,2.6439,2.6437,2.6436,2.6434,2.6377,2.6377,2.6377,0,0,0,0,0,0,0,0,0,0,0,0,0,2.6615,2.6615,2.6582,2.6581,2.6581,2.6526,2.6525,2.6525,2.6439,2.6437,2.6435,2.6434,2.6377,2.6377,2.6377,0,0,0,0,0,0,0,0,0,0,0,0,0,2.6584,2.6615,2.6582,2.6531,2.6526,2.6526,2.6525,2.6524,2.6439,2.6437,2.6435,2.6433,2.6377,2.6377,2.6377,2.6422,0,0,2.6376,2.6376,0,0,0,0,0,0,0,0,2.6586,2.6583,2.654,2.6535,2.6529,2.6487,2.6516,2.649,2.644,2.6472,2.6434,2.6432,2.6415,2.6412,2.6406,2.6419,2.6417,2.6376,2.6376,2.6376,2.6376,0,0,0,0,0,0,0,2.6588,2.6585,2.656,2.6539,2.6533,2.6511,2.6504,2.6511,2.6457,2.6469,2.6463,2.6458,2.6412,2.6407,2.6404,2.6416,2.6376,2.6376,2.6376,2.6376,2.6462,2.6464,0,0,0,0,0,0,2.6598,2.6587,2.6562,2.6558,2.6552,2.6513,2.6505,2.6503,2.6457,2.6448,2.646,2.6454,2.6408,2.6405,2.6402,2.6451,2.6376,2.6376,2.6376,2.6459,2.6462,2.6465,0,0,0,0,0,0,2.6599,2.6596,2.6564,2.6571,2.6565,2.6515,2.6513,2.6503,2.6497,2.645,2.644,2.6464,2.6406,2.6402,2.6417,2.6447,2.6376,2.6376,2.6457,2.646,2.6463,2.6549,0,0,0,0,0,0,2.66,2.6597,2.6614,2.6572,2.6565,2.658,2.6515,2.6504,2.6498,2.6489,2.6451,2.6443,2.6404,2.6418,2.6417,2.6446,2.6375,2.6453,2.6458,2.6462,2.6543,2.6555,2.6565,0,0,0,0,0,2.6602,2.664,2.6615,2.6612,2.6585,2.6582,2.6578,2.6533,2.65,2.6516,2.6486,2.6444,2.6445,2.642,2.6419,2.6448,2.6451,2.6457,2.6462,2.6538,2.6553,2.6565,0,0,0,0,0,0,2.6687,2.6634,2.6605,2.6632,2.6612,2.6568,2.6586,2.655,2.6539,2.6532,2.6477,2.6469,2.6491,2.6471,2.6444,2.6489,2.6442,2.6447,2.65,2.6514,2.6525,2.6528,2.6375,0,0,0,0,0,2.6709,2.6711,2.6665,2.6692,2.6684,2.6638,2.6635,2.6602,2.6579,2.657,2.6541,2.652,2.6516,2.6514,2.6507,2.6541,2.6531,2.656,2.6571,2.6581,2.6585,2.66,2.6612,2.6482,2.6482,2.6482,0,0,2.6754,2.6725,2.673,2.6709,2.669,2.6693,2.6631,2.6637,2.6639,2.6571,2.6583,2.6561,2.6535,2.6559,2.6568,2.6543,2.6619,2.6587,2.6595,2.6594,2.6607,2.6619,2.663,2.6486,2.6485,2.6485,0,0,2.6837,2.6816,2.6836,2.6819,2.6791,2.676,2.6765,2.6726,2.6709,2.672,2.6669,2.6671,2.6665,2.6647,2.6638,2.6716,2.6677,2.6716,2.6772,2.6788,2.6798,2.6807,2.6833,2.6843,2.6721,2.6721,2.6721,0,2.6896,2.6899,2.6852,2.6861,2.6853,2.6792,2.6812,2.6798,2.6769,2.6765,2.6738,2.6728,2.6707,2.6725,2.6744,2.6739,2.6743,2.6719,2.68,2.6809,2.6816,2.6841,2.6851,2.6726,2.6726,2.6725,2.6725,0,2.6973,2.6976,2.6996,2.6969,2.6964,2.6979,2.6933,2.6933,2.6902,2.6873,2.6885,2.6857,2.6843,2.6846,2.6815,2.686,2.6845,2.6811,2.6762,2.6834,2.6856,2.6865,2.6733,2.6731,2.673,2.6729,0,0,2.7106,2.7054,2.7062,2.7049,2.7015,2.7016,2.7028,2.7015,2.7015,2.6999,2.7006,2.7003,2.697,2.696,2.6927,2.694,2.7002,2.6903,2.6902,2.6921,2.7049,2.7074,2.7085,2.6977,2.6978,2.698,2.705,0,2.7181,2.7198,2.7156,2.7183,2.7185,2.7128,2.7139,2.7119,2.7093,2.7091,2.7062,2.706,2.7018,2.7011,2.7023,2.6992,2.7027,2.6987,2.6982,2.6983,2.6989,2.7097,2.7124,2.7191,2.7059,2.706,2.7061,0,2.7269,2.7257,2.7285,2.7248,2.7247,2.7258,2.7242,2.7241,2.7217,2.7197,2.7186,2.7147,2.7156,2.7111,2.7122,2.7096,2.7092,2.7077,2.7079,2.7075,2.7025,2.7094,2.7212,2.7222,2.7075,2.7073,2.7073,0,2.7361,2.7352,2.7367,2.7358,2.7316,2.7325,2.7308,2.7282,2.7276,2.7263,2.7259,2.7247,2.724,2.7231,2.719,2.7162,2.7206,2.7158,2.7188,2.719,2.7198,2.7198,2.7315,2.72,2.72,2.72,2.7199,0,2.7448,2.7467,2.7407,2.7417,2.7436,2.7388,2.7409,2.7386,2.7364,2.7367,2.7318,2.7322,2.7269,2.7267,2.7236,2.7249,2.7247,2.723,2.7221,2.7233,2.7235,2.7228,2.7221,2.7202,2.7202,2.7201,2.7201,0,2.7553,2.7514,2.7526,2.7487,2.7477,2.7493,2.7458,2.7465,2.7437,2.7442,2.7441,2.7396,2.7392,2.7351,2.7337,2.7316,2.734,2.7323,2.7348,2.7342,2.7374,2.7371,2.749,2.7502,2.7381,2.7382,2.7383,0,2.7609,2.7622,2.7584,2.7583,2.7568,2.7567,2.7562,2.7516,2.7512,2.7486,2.7496,2.7487,2.7478,2.7473,2.744,2.7429,2.741,2.7452,2.7408,2.7419,2.7408,2.7407,2.7407,2.7461,2.7462,2.7464,2.7465,0,2.7713,2.7693,2.7687,2.7675,2.7669,2.7657,2.7642,2.7644,2.7593,2.7591,2.7586,2.7579,2.7566,2.7557,2.7541,2.7523,2.7485,2.748,2.7486,2.7497,2.751,2.7502,2.7372,2.7476,2.7475,2.7474,2.7474,2.7473,2.7794,2.7802,2.7777,2.7771,2.7756,2.7743,2.7747,2.7719,2.7714,2.77,2.7673,2.7672,2.7648,2.7622,2.7607,2.7605,2.7583,2.7592,2.7594,2.7597,2.7603,2.7513,2.7602,2.7602,2.7601,2.7601,2.7601,0,2.7893,2.7874,2.787,2.785,2.7846,2.7813,2.7794,2.7793,2.7792,2.7773,2.7765,2.7759,2.7752,2.7718,2.7706,2.7711,2.7693,2.7709,2.7707,2.7703,2.7624,2.7619,2.7724,2.7724,2.7724,2.7724,2.7724,2.7724,2.7944,2.7957,2.7935,2.7939,2.7919,2.7918,2.791,2.7898,2.7882,2.7878,2.7871,2.785,2.7825,2.7811,2.7802,2.7792,2.7789,2.7811,2.7795,2.7721,2.7709,2.7698,2.7693,2.7811,2.7811,2.7874,2.7875,2.7875]}]]